Home > Weather > Pirassununga > Past weeks

Flag for Brazil Weather for the Past 2 Weeks in Pirassununga, São Paulo, Brazil

Now
61 °F

Fog.


Feels Like: 61 °F
Forecast: 56 / 83 °F
Wind: 6 mph from Southeast

Location: Leite Lopes / Ribeir

Current Time: May 5, 2016 at 8:30:23 AM

Latest Report: May 5, 2016 at 8:00 AM


Visibility: 3 mi

Pressure: 30.12 "Hg (27.95 "Hg at 632m altitude)

Humidity: 83%

Dew Point: 55 °F

Location of PirassunungaLocation

Historic Weather in Pirassununga — Graph

°F

Pirassununga Temperature Yesterday

Maximum temperature yesterday: 86 °F (at 2:00 PM)
Minimum temperature yesterday: 55 °F (at 5:00 AM)
Average temperature yesterday: 70 °F

High & Low Weather Summary for the Past Weeks

 TemperatureHumidityPressure
High93 °F (Apr 21, 3:00 PM)100% (Apr 27, 3:00 AM)30.15 "Hg (Apr 27, 3:00 AM)
Low48 °F (May 2, 5:00 AM)21% (May 2, 5:00 PM)29.80 "Hg (Apr 25, 3:00 PM)
Average71 °F65%30.02 "Hg
* Reported Apr 20 7:00 AM — May 5 7:00 AM, Pirassununga, Weather by CustomWeather, © 2016

Note: Actual official high and low records may vary slightly from our data, if they occured in-between our weather recording intervals... More about our weather records

Advertising

Pirassununga Weather History for the Previous 24 Hours

Scroll right to see more
 ConditionsComfort  
Time TempWeatherWind HumidityBarometerVisibility
7:00 AM
Thu, May 5
57 °FFog.6 mph88%30.09 "Hg3 mi
6:00 AM55 °FSunny.5 mph88%30.07 "Hg10 mi
5:00 AM57 °FClear.6 mph88%30.07 "Hg10 mi
4:00 AM57 °FClear.No wind88%30.07 "Hg10 mi
3:00 AM57 °FClear.No wind88%30.07 "Hg10 mi
2:00 AM59 °FClear.No wind88%30.07 "Hg10 mi
1:00 AM63 °FClear.No wind73%30.07 "Hg10 mi
12:00 AM63 °FClear.No wind77%30.07 "Hg10 mi
11:00 PM
Wed, May 4
66 °FClear.3 mph64%30.09 "Hg10 mi
10:00 PM64 °FClear.No wind73%30.07 "Hg10 mi
9:00 PM66 °FClear.No wind73%30.07 "Hg10 mi
8:00 PM75 °FClear.No wind41%30.07 "Hg10 mi
7:00 PM79 °FClear.6 mph37%30.04 "Hg10 mi
6:00 PM81 °FClear.2 mph34%30.04 "Hg10 mi
5:00 PM84 °FClear.6 mph29%30.01 "Hg10 mi
4:00 PM84 °FSunny.6 mph29%30.01 "Hg10 mi
3:00 PM86 °FSunny.6 mph25%30.01 "Hg10 mi
2:00 PM86 °FSunny.8 mph27%30.04 "Hg10 mi
1:00 PM84 °FSunny.5 mph27%30.07 "Hg10 mi
12:00 PM82 °FSunny.2 mph37%30.09 "Hg10 mi
11:00 AM79 °FSunny.5 mph45%30.12 "Hg10 mi
10:00 AM72 °FSunny.6 mph61%30.12 "Hg10 mi
9:00 AM66 °FSunny.7 mph64%30.12 "Hg10 mi
8:00 AM61 °FSunny.7 mph83%30.12 "Hg10 mi
Weather by CustomWeather, © 2016

See weather overviewHow to use our weather pages